Weather History for KLND - May, 2014

Change the Weather History Date:

Tuesday, May 6, 2014

  Actual Average Record
Temperature  
Mean Temperature 50 °F 50 °F  
Max Temperature 62 °F 63 °F 85 °F (1992)
Min Temperature 38 °F 37 °F 19 °F (1917)
Degree Days  
Heating Degree Days 15 15  
Month to date heating degree days 53 94  
Since 1 July heating degree days 7305 7348  
Cooling Degree Days 0 0  
Month to date cooling degree days 2 0  
Year to date cooling degree days 2 0  
Moisture  
Dew Point 39 °F    
Average Humidity 73    
Maximum Humidity 100    
Minimum Humidity 46    
Precipitation  
Precipitation 0.18 in 0.07 in 0.88 in (1978)
Month to date precipitation 0.18 0.45  
Year to date precipitation 2.86 4.47  
Snow  
Snow 0.00 in 0.30 in - ()
Month to date snowfall 0.0 2.0  
Since 1 July snowfall 73.5 88.5  
Snow Depth 0.00 in    
Sea Level Pressure  
Sea Level Pressure 29.62 in    
Wind  
Wind Speed 8 mph (NNE)    
Max Wind Speed 20 mph    
Max Gust Speed 29 mph    
Visibility 8 miles    
Events Rain , Thunderstorm    
T = Trace of Precipitation, MM = Missing Value Source: NWS Daily Summary

Daily Weather History Graph

Daily Weather History Graph

Search for Another Location

Airport or City:

Trip Planner

Search our weather history database for the weather conditions in past years. The results will help you decide how hot, cold, wet, or windy it might be!

Date:

Astronomy

May. 06, 2014 Rise Set
Actual Time 6:02 AM MDT 8:21 PM MDT
Civil Twilight 5:31 AM MDT 8:52 PM MDT
Nautical Twilight 4:52 AM MDT 9:31 PM MDT
Astronomical Twilight 4:08 AM MDT 10:15 PM MDT
Moon 12:23 PM MDT (5/6) 1:40 AM MDT (5/6)
Length of Visible Light 15h 21m
Length of Day
14h 18m
Waxing Crescent, 46% of the Moon is Illuminated
May 6
Waxing Crescent
May 6
First Quarter
May 14
Full
May 21
Last Quarter
May 28
New

Hourly Weather History & Observations

Time (MDT) Temp. Windchill Dew Point Humidity Pressure Visibility Wind Dir Wind Speed Gust Speed Precip Events Conditions
12:53 AM 48.9 °F - 30.0 °F 48% 29.61 in 10.0 mi SSW 4.6 mph - N/A   Clear
1:53 AM 48.0 °F - 30.9 °F 52% 29.59 in 10.0 mi West 3.5 mph - N/A   Partly Cloudy
5:53 AM 45.0 °F 41.2 °F 30.9 °F 58% 29.57 in 10.0 mi West 6.9 mph - N/A   Clear
6:53 AM 44.1 °F 42.5 °F 32.0 °F 63% 29.61 in 10.0 mi ESE 3.5 mph - N/A   Overcast
8:53 AM 50.0 °F - 34.0 °F 54% 29.62 in 10.0 mi NW 10.4 mph - N/A   Mostly Cloudy
9:53 AM 53.1 °F - 34.0 °F 48% 29.60 in 10.0 mi North 5.8 mph - N/A   Scattered Clouds
10:53 AM 57.0 °F - 37.0 °F 47% 29.57 in 10.0 mi Variable 3.5 mph - N/A   Partly Cloudy
11:53 AM 57.9 °F - 37.9 °F 47% 29.54 in 10.0 mi ENE 5.8 mph - N/A   Partly Cloudy
12:53 PM 55.9 °F - 39.9 °F 55% 29.51 in 9.0 mi NNW 6.9 mph - 0.00 in Rain Light Rain
1:13 PM 54.0 °F - 43.0 °F 66% 29.63 in 3.0 mi NW 8.1 mph - 0.02 in Rain , Thunderstorm Light Rain
1:28 PM 57.9 °F - 45.0 °F 62% 29.63 in 10.0 mi West 8.1 mph - 0.03 in Rain Light Rain
1:53 PM 57.9 °F - 41.0 °F 53% 29.48 in 10.0 mi North 11.5 mph - 0.03 in   Partly Cloudy
2:53 PM 60.1 °F - 41.0 °F 49% 29.47 in 10.0 mi NNW 18.4 mph 24.2 mph N/A   Partly Cloudy
3:53 PM 57.0 °F - 39.0 °F 51% 29.46 in 10.0 mi North 9.2 mph - N/A   Partly Cloudy
4:53 PM 57.9 °F - 37.9 °F 47% 29.50 in 10.0 mi North 9.2 mph - N/A   Scattered Clouds
5:53 PM 57.9 °F - 39.0 °F 49% 29.51 in 10.0 mi North 11.5 mph - N/A   Overcast
6:24 PM 55.9 °F - 37.9 °F 51% 29.62 in 10.0 mi North 12.7 mph - 0.00 in Rain , Thunderstorm Light Rain
6:45 PM 53.1 °F - 42.1 °F 66% 29.64 in 10.0 mi North 20.7 mph 26.5 mph 0.00 in   Mostly Cloudy
6:53 PM 52.0 °F - 42.1 °F 69% 29.56 in 10.0 mi NNE 19.6 mph 28.8 mph 0.00 in   Mostly Cloudy
7:25 PM 50.0 °F - 43.0 °F 77% 29.66 in 8.0 mi NE 11.5 mph - 0.00 in Rain , Thunderstorm Light Thunderstorms and Rain
7:40 PM 48.0 °F - 44.1 °F 86% 29.67 in 6.0 mi ESE 8.1 mph - 0.00 in Rain Light Rain
7:53 PM 46.9 °F - 44.1 °F 90% 29.60 in 5.0 mi East 4.6 mph - 0.01 in Rain Light Rain
8:06 PM 46.9 °F - 44.1 °F 90% 29.69 in 7.0 mi Calm Calm - 0.00 in Rain , Thunderstorm Light Rain
8:30 PM 46.9 °F - 42.1 °F 83% 29.69 in 10.0 mi Variable 3.5 mph - 0.00 in   Overcast
8:53 PM 46.9 °F - 43.0 °F 86% 29.63 in 10.0 mi NNE 8.1 mph - 0.00 in   Overcast
9:37 PM 45.0 °F 38.2 °F 41.0 °F 86% 29.74 in 10.0 mi NNE 15.0 mph - N/A   Overcast
9:53 PM 44.1 °F 39.0 °F 41.0 °F 89% 29.66 in 10.0 mi NE 9.2 mph - N/A   Overcast
10:43 PM 42.1 °F 36.1 °F 39.0 °F 89% 29.75 in 9.0 mi East 10.4 mph - 0.00 in Rain Light Rain
10:53 PM 42.1 °F 35.2 °F 37.9 °F 85% 29.67 in 10.0 mi ENE 12.7 mph - 0.00 in Rain Light Rain
11:25 PM 39.9 °F 33.4 °F 39.0 °F 97% 29.76 in 3.0 mi ESE 10.4 mph - 0.02 in Rain Rain
11:32 PM 39.9 °F 33.9 °F 37.9 °F 93% 29.77 in 2.0 mi East 9.2 mph - 0.04 in Rain Rain
11:46 PM 39.9 °F 35.1 °F 39.0 °F 97% 29.78 in 4.0 mi SSE 6.9 mph - 0.07 in Rain Light Rain
11:53 PM 39.9 °F 33.4 °F 39.0 °F 97% 29.71 in 6.0 mi South 10.4 mph - 0.07 in Rain Light Rain